Regional Weather Roundup
Issued by NWS

Home | Current Version | Previous Version | Text Only | Print | Product List | Glossary On
Versions: 1 2 3 4 5 6 7 8 9 10 11 12 13 14 15 16 17 18 19 20 21 22 23 24 25 26 27 28 29 30 31 32 33 34 35 36 37 38 39 40 41 42 43 44 45 46 47 48 49 50
000
ASUS46 KLOX 291312
RWRCA

SOUTHERN CALIFORNIA WEATHER ROUNDUP
NATIONAL WEATHER SERVICE OXNARD CALIFORNIA
600 AM PDT FRI AUG 29 2014

NOTE: "FAIR" INDICATES FEW OR NO CLOUDS BELOW 12,000 FEET WITH NO
SIGNIFICANT WEATHER AND/OR OBSTRUCTIONS TO VISIBILITY.

  -  STATIONS PRECEEDED BY AN ASTERISK (*) ARE NOT NWS OR FAA
     STATIONS AND ARE NOT SUBJECT TO NWS AND FAA QUALITY CONTROL.

CAZ041-042-087-291400-
LA AND ORANGE COUNTY COASTAL AREAS


CITY           SKY/WX    TMP DP  RH WIND       PRES   REMARKS
L.A. DOWNTOWN  CLEAR     66  61  84 CALM      29.87R
L.A. AIRPORT   CLEAR     67  63  87 CALM      29.88R
LONG BEACH     CLEAR     68  61  78 N3        29.87R

CITY           SKY/WX    TMP DP  RH WIND       PRES   REMARKS
AVALON           N/A     63 N/A N/A MISG        N/A
FULLERTON      CLEAR     67  58  72 CALM      29.86R
*GETTY CENTER    N/A     68  45  42 NE3         N/A
HAWTHORNE      CLEAR     68  64  87 CALM      29.87S
*LEO CARRILLO    N/A     60  49  67 N7          N/A
*LOS ALAMITOS  FAIR      64  63  96 CALM      29.87R
*REDONDO BEACH   N/A     66  63  88 CALM      29.86S
SANTA ANA      CLEAR     71  62  73 CALM      29.87R
STA MONICA APT CLEAR     66  61  84 CALM      29.88R
*UCLA            N/A     64  54  68 CALM      29.85S

$$

CAZ547-548-048-291400-
LA COUNTY VALLEYS AND INLAND EMPIRE


CITY           SKY/WX    TMP DP  RH WIND       PRES   REMARKS
BURBANK        CLEAR     68  45  43 CALM      29.88R
VAN NUYS       CLEAR     68  47  46 CALM      29.88R

CITY           SKY/WX    TMP DP  RH WIND       PRES   REMARKS
CORONA AIRPORT SUNNY     56  48  74 CALM      29.89R
CHINO          CLEAR     63  53  70 CALM      29.89R HAZE
MARCH AFB      CLEAR     65  48  53 CALM      29.91S
ONTARIO        CLEAR     70  48  45 CALM      29.88S
*PASADENA        N/A     70  48  46 CALM        N/A
RIVERSIDE      CLEAR     67  52  58 CALM      29.88S
SAN BERNARDINO NOT AVBL
*SAN RAFAEL HI   N/A     71  43  36 S2          N/A
*SAUGUS          N/A     66  44  45 CALM        N/A
*WHITEMAN AP   NOT AVBL
*WHITTIER HILL   N/A     68  50  52 CALM        N/A
*WOODLAND HILL   N/A     61  46  59 CALM        N/A

$$

CAZ054-055-291400-
LA AND SAN BERNARDINO COUNTY MOUNTAINS


CITY           SKY/WX    TMP DP  RH WIND       PRES   REMARKS
*ACTON           N/A     60  43  52 N6          N/A
*BIG BEAR AIRP SUNNY     43  34  70 CALM      30.27S
*BIG PINES       N/A     63  16  16 CALM        N/A
MT WILSON NWS    N/A     68  30  24 W7          N/A
SANDBERG       CLEAR     69  32  25 N12       30.09S
*WARM SPRINGS    N/A     72  36  27 W9          N/A

$$

CAZ028-029-059-060-099-291400-
ANTELOPE VALLEY AND SURROUNDING AREAS


CITY           SKY/WX    TMP DP  RH WIND       PRES   REMARKS
LANCASTER      CLEAR     62  39  42 CALM      29.95S
PALMDALE       CLEAR     66  42  41 S5        29.96R

CITY           SKY/WX    TMP DP  RH WIND       PRES   REMARKS
29 PALMS       CLEAR     78  41  26 W12       29.98R
BARSTOW/DAGGET CLEAR     74  43  32 W12       29.91R
BISHOP         PTCLDY    57  29  34 NW7       30.05R
CHINA LAKE     CLEAR     63  23  21 W6        29.91R
EDWARDS AFB    CLEAR     66  41  39 SW7       29.92R
MOJAVE         FAIR      66  28  24 CALM      29.95F
NEEDLES        CLEAR     79  37  22 NW6       29.81S
VICTORVILLE    CLEAR     68  45  42 S9        29.98S

$$

CAZ039-040-291400-
VENTURA AND SANTA BARBARA COUNTY COAST


CITY           SKY/WX    TMP DP  RH WIND       PRES   REMARKS
CAMARILLO      PTCLDY    62  55  77 E3        29.87S
NWS OXNARD       N/A     58  54  85 CALM      29.87R
OXNARD AIRPORT CLEAR     60  57  89 CALM      29.87S
*POINT MUGU    PTCLDY    61  57  87 NE5       29.88R FOG
SBA APT/GOLETA CLEAR     58  54  86 CALM      29.85S
*SANTA BARBARA   N/A     64  58  82 CALM      29.93S
*VENTURA         N/A     59  54  83 CALM      29.90S

$$

CAZ044-045-291400-
VENTURA COUNTY VALLEYS


CITY           SKY/WX    TMP DP  RH WIND       PRES   REMARKS
*SIMI VALLEY     N/A     62  46  56 CALM      29.82R
*OJAI            N/A     53  48  83 CALM      29.82R
*FILLMORE        N/A     56  51  85 CALM      29.77S

$$

CAZ053-291400-
VENTURA COUNTY MOUNTAINS


CITY           SKY/WX    TMP DP  RH WIND       PRES   REMARKS
*LOCKWOOD VLY    N/A     45  16  31 MISG        N/A
*ROSE VALLEY     N/A     45  34  65 MISG        N/A

$$

CAZ034-035-036-291400-
CENTRAL COAST AND SANTA YNEZ VALLEY


CITY           SKY/WX    TMP DP  RH WIND       PRES   REMARKS
SAN LUIS OBISP CLOUDY    59  57  93 NW8       29.91F
SANTA MARIA    CLOUDY    62  57  83 W3        29.92S

CITY           SKY/WX    TMP DP  RH WIND       PRES   REMARKS
*CAL POLY SLO    N/A     59  59 100 NW7         N/A
*LOMPOC        CLOUDY    61  54  77 NW3       29.93S
*PISMO BEACH     N/A     59  57  92 NE6       29.92S
*SANTA YNEZ    CLOUDY    55  54  94 CALM      29.93R FOG

$$

CAZ037-038-051-291400-
SAN LUIS OBISPO COUNTY INTERIOR AND CUYAMA VALLEY


CITY           SKY/WX    TMP DP  RH WIND       PRES   REMARKS
*CUYAMA          N/A     60  37  42 E1        29.86R
PASO ROBLES    CLOUDY    59  55  87 VRB3      29.95S

$$

CAZ032-033-061-291400-
SOUTHERN DESERTS


CITY           SKY/WX    TMP DP  RH WIND       PRES   REMARKS
BLYTHE         CLEAR     77  46  33 CALM      29.77R
IMPERIAL       CLEAR     78  52  40 W5        29.73R
PALM SPRINGS   CLEAR     84  52  33 CALM      29.79S
THERMAL        CLEAR     80  49  33 NE5       29.72R

$$

ELSEWHERE ACROSS THE WESTERN UNITED STATES AND MEXICO


CITY           SKY/WX    TMP DP  RH WIND       PRES   REMARKS
DENVER, CO     PTCLDY    57  44  62 SW14      30.10R
GRAND CANYON,  CLEAR     45  39  79 VRB5      30.26
HONOLULU, HI   PTCLDY    77  68  73 CALM      29.89F
KAHULUI, MAUI  CLEAR     75  68  78 NE6       29.89F
LAKE TAHOE, CA MOCLDY    46  38  73 S5        30.22S
LAS VEGAS, NV  CLEAR     78  36  21 S9        29.87R
MAMMOTH LAKES, FAIR      46  30  53 CALM      30.27S
MEXICO CITY, M MOCLDY    55  50  82 E5        30.26S
PHOENIX, AZ    CLEAR     84  50  30 E5        29.81R
PORTLAND, OR   CLOUDY    64  60  87 CALM      29.98F
RENO, NV       PTCLDY    62  44  51 S3        30.10S
SALT LAKE CITY PTCLDY    61  49  64 SE8       30.08S
SAN DIEGO, CA  CLEAR     71  65  81 CALM      29.87F
SAN FRANCISCO, CLOUDY    60  59  96 SW6       29.94F
SAN JOSE, CA   CLOUDY    62  58  86 CALM      29.94F
SEATTLE, WA    CLOUDY    60  56  86 S3        29.99S
TIJUANA, MEX   CLEAR     68  63  83 CALM      29.90S

$$

STATION/POSITION TIME  TEMP    WIND        PRES    VSBY  WAVE
                       AIR SEA DIR/SP/G                  HT/PER
                 (UTC) (F)     (DEG/KT/KT) (MB)    (MI)  (FT/S)
POINT ARGUELLO B NOT AVBL
WEST SANTA BARBA 1300   61 62  320/ 21/ 25 1011.2R         6/ 5
POINT CONCEPTION NOT AVBL
EAST SANTA BARBA 1300   65 66  330/ 10/ 12 1011.0S
SANTA MONICA BAY 1300   67 71  320/  8/ 12 1011.1R         6/11



USA.gov is the U.S. government's official web portal to all federal, state and local government web resources and services.